LD28 SABE-SACO

Flight info

Callsign LD28
Flight time 1h 12m
Altitude 26000
Route ATOV4B ATOVO UW5 ASISA ASIS1Q
Aircraft B732/M-SFG/1200

Departure

Time 2026-04-30 20:23
Airport Aeroparque Jorge Newbery (SABE)

Arrival

Time 2026-04-30 21:36
Airport Ingeniero Aeronáutico Ambrosio L.V. Taravella International Airport (SACO)
Time Latitude Longitude Altitude Speed Heading
2026-04-30 19:39 -34.55842 -58.41144 28 ft 0 kts
2026-04-30 20:06 -34.55841 -58.41144 28 ft 0 kts
2026-04-30 20:11 -34.55852 -58.41145 28 ft 2 kts
2026-04-30 20:12 -34.55885 -58.41149 28 ft 3 kts
2026-04-30 20:12 -34.55902 -58.41150 28 ft 2 kts
2026-04-30 20:12 -34.55903 -58.41150 28 ft 0 kts
2026-04-30 20:14 -34.55896 -58.41151 28 ft 4 kts 349°
2026-04-30 20:14 -34.55881 -58.41161 28 ft 1 kts 328°
2026-04-30 20:14 -34.55877 -58.41163 28 ft 1 kts 327°
2026-04-30 20:15 -34.55865 -58.41175 28 ft 3 kts 317°
2026-04-30 20:15 -34.55852 -58.41200 28 ft 4 kts 281°
2026-04-30 20:15 -34.55866 -58.41232 28 ft 5 kts 221°
2026-04-30 20:15 -34.55891 -58.41269 28 ft 6 kts 263°
2026-04-30 20:16 -34.55878 -58.41324 28 ft 8 kts 298°
2026-04-30 20:16 -34.55847 -58.41383 28 ft 9 kts 304°
2026-04-30 20:16 -34.55804 -58.41449 28 ft 11 kts 307°
2026-04-30 20:16 -34.55765 -58.41530 28 ft 12 kts 298°
2026-04-30 20:17 -34.55722 -58.41625 28 ft 13 kts 296°
2026-04-30 20:17 -34.55677 -58.41731 28 ft 15 kts 299°
2026-04-30 20:17 -34.55626 -58.41846 28 ft 16 kts 297°
2026-04-30 20:17 -34.55572 -58.41974 28 ft 18 kts 299°
2026-04-30 20:18 -34.55506 -58.42105 28 ft 19 kts 303°
2026-04-30 20:18 -34.55428 -58.42244 28 ft 20 kts 304°
2026-04-30 20:18 -34.55372 -58.42376 28 ft 15 kts 274°
2026-04-30 20:18 -34.55374 -58.42403 28 ft 0 kts 254°
2026-04-30 20:21 -34.55374 -58.42405 28 ft 2 kts 254°
2026-04-30 20:22 -34.55378 -58.42420 28 ft 2 kts 254°
2026-04-30 20:22 -34.55389 -58.42457 28 ft 7 kts 233°
2026-04-30 20:22 -34.55454 -58.42418 28 ft 32 kts 124°
2026-04-30 20:22 -34.55710 -58.41957 28 ft 99 kts 124°
2026-04-30 20:23 -34.56225 -58.41037 29 ft 159 kts 124°
2026-04-30 20:23 -34.56855 -58.39912 577 ft 165 kts 124°
2026-04-30 20:23 -34.57539 -58.38690 1231 ft 182 kts 124°
2026-04-30 20:23 -34.58200 -58.37276 1785 ft 209 kts 111°
2026-04-30 20:24 -34.58452 -58.35440 2274 ft 236 kts 89°
2026-04-30 20:24 -34.58179 -58.33371 2553 ft 263 kts 71°
2026-04-30 20:24 -34.57315 -58.31212 2640 ft 301 kts 57°
2026-04-30 20:24 -34.56048 -58.29086 3049 ft 328 kts 51°
2026-04-30 20:25 -34.52943 -58.24719 4301 ft 326 kts 47°
2026-04-30 20:25 -34.51532 -58.22806 5057 ft 284 kts 46°
2026-04-30 20:26 -34.49264 -58.19617 6281 ft 225 kts 46°
2026-04-30 20:26 -34.47330 -58.16822 6773 ft 209 kts 47°
2026-04-30 20:26 -34.46378 -58.15518 6914 ft 203 kts 39°
2026-04-30 20:27 -34.44110 -58.13591 6936 ft 197 kts
2026-04-30 20:27 -34.42207 -58.15073 7205 ft 189 kts 275°
2026-04-30 20:28 -34.42147 -58.18971 7272 ft 287 kts 281°
2026-04-30 20:28 -34.40439 -58.23931 7026 ft 352 kts 296°
2026-04-30 20:29 -34.38120 -58.29291 7003 ft 341 kts 296°
2026-04-30 20:30 -34.35379 -58.35772 6944 ft 324 kts 295°
2026-04-30 20:30 -34.32530 -58.42956 6876 ft 307 kts 293°
2026-04-30 20:31 -34.29885 -58.49873 6900 ft 301 kts 293°
2026-04-30 20:32 -34.27610 -58.56058 6900 ft 302 kts 292°
2026-04-30 20:32 -34.25924 -58.60721 6900 ft 302 kts 292°
2026-04-30 20:33 -34.25108 -58.62978 7321 ft 291 kts 292°
2026-04-30 20:33 -34.23473 -58.67496 8967 ft 299 kts 292°
2026-04-30 20:33 -34.22623 -58.69847 9543 ft 308 kts 292°
2026-04-30 20:34 -34.20880 -58.74659 10356 ft 315 kts 292°
2026-04-30 20:34 -34.19108 -58.79532 10894 ft 319 kts 292°
2026-04-30 20:35 -34.18215 -58.81986 11066 ft 320 kts 292°
2026-04-30 20:35 -34.17320 -58.84442 11261 ft 319 kts 292°
2026-04-30 20:35 -34.15549 -58.89291 12450 ft 314 kts 292°
2026-04-30 20:36 -34.14671 -58.91696 13259 ft 315 kts 292°
2026-04-30 20:36 -34.13779 -58.94138 14167 ft 316 kts 292°
2026-04-30 20:36 -34.12003 -58.98994 16142 ft 317 kts 292°
2026-04-30 20:37 -34.11116 -59.01416 17193 ft 314 kts 292°
2026-04-30 20:37 -34.10233 -59.03823 18279 ft 308 kts 292°
2026-04-30 20:37 -34.09384 -59.06135 19357 ft 299 kts 292°
2026-04-30 20:37 -34.08545 -59.08418 20369 ft 293 kts 292°
2026-04-30 20:38 -34.07721 -59.10664 21048 ft 295 kts 292°
2026-04-30 20:38 -34.06894 -59.12918 21775 ft 293 kts 292°
2026-04-30 20:38 -34.06079 -59.15141 22565 ft 287 kts 292°
2026-04-30 20:39 -34.05452 -59.19680 23944 ft 275 kts 261°
2026-04-30 20:39 -34.05626 -59.22069 23888 ft 298 kts 269°
2026-04-30 20:39 -34.05586 -59.24633 23909 ft 317 kts 273°
2026-04-30 20:40 -34.04942 -59.30170 24128 ft 353 kts 283°
2026-04-30 20:40 -34.04309 -59.33090 24445 ft 363 kts 285°
2026-04-30 20:40 -34.03559 -59.35992 25135 ft 363 kts 291°
2026-04-30 20:41 -34.01044 -59.41207 26511 ft 368 kts 310°
2026-04-30 20:41 -33.99051 -59.43271 26501 ft 390 kts 323°
2026-04-30 20:41 -33.96664 -59.45050 26369 ft 409 kts 327°
2026-04-30 20:41 -33.94158 -59.46719 26069 ft 419 kts 328°
2026-04-30 20:42 -33.91584 -59.48417 25812 ft 417 kts 328°
2026-04-30 20:42 -33.89081 -59.50133 25622 ft 414 kts 327°
2026-04-30 20:42 -33.84204 -59.53790 25197 ft 412 kts 323°
2026-04-30 20:43 -33.81875 -59.55705 25246 ft 405 kts 322°
2026-04-30 20:43 -33.79571 -59.57696 25371 ft 404 kts 321°
2026-04-30 20:43 -33.77329 -59.59720 25462 ft 405 kts 320°
2026-04-30 20:44 -33.72899 -59.63911 25497 ft 407 kts 318°
2026-04-30 20:44 -33.70685 -59.66084 25497 ft 407 kts 317°
2026-04-30 20:44 -33.66873 -59.70969 25865 ft 389 kts 304°
2026-04-30 20:45 -33.64179 -59.75753 29375 ft 312 kts 301°
2026-04-30 20:45 -33.63017 -59.77891 30138 ft 304 kts 301°
2026-04-30 20:45 -33.61847 -59.80036 30228 ft 314 kts 301°
2026-04-30 20:46 -33.57948 -59.87183 29804 ft 369 kts 301°
2026-04-30 20:46 -33.56520 -59.89799 29643 ft 385 kts 301°
2026-04-30 20:47 -33.53571 -59.95179 29300 ft 383 kts 301°
2026-04-30 20:47 -33.52114 -59.97827 29122 ft 377 kts 301°
2026-04-30 20:48 -33.49253 -60.03020 28767 ft 369 kts 301°
2026-04-30 20:48 -33.47850 -60.05567 28590 ft 366 kts 301°
2026-04-30 20:48 -33.46446 -60.08116 28411 ft 364 kts 301°
2026-04-30 20:48 -33.45065 -60.10621 28226 ft 362 kts 301°
2026-04-30 20:49 -33.42289 -60.15658 27263 ft 374 kts 301°
2026-04-30 20:49 -33.40811 -60.18348 26018 ft 393 kts 301°
2026-04-30 20:50 -33.37903 -60.23611 26006 ft 352 kts 301°
2026-04-30 20:50 -33.36613 -60.25932 26763 ft 325 kts 301°
2026-04-30 20:50 -33.35363 -60.28183 26934 ft 338 kts 301°
2026-04-30 20:50 -33.33998 -60.30661 26073 ft 365 kts 301°
2026-04-30 20:51 -33.32586 -60.33224 25300 ft 370 kts 301°
2026-04-30 20:51 -33.29731 -60.38382 24086 ft 367 kts 301°
2026-04-30 20:51 -33.28362 -60.40847 23877 ft 354 kts 301°
2026-04-30 20:52 -33.27009 -60.43278 23739 ft 340 kts 301°
2026-04-30 20:52 -33.25740 -60.45553 23880 ft 322 kts 301°
2026-04-30 20:52 -33.23286 -60.49962 24387 ft 321 kts 301°
2026-04-30 20:53 -33.22059 -60.52210 24629 ft 326 kts 300°
2026-04-30 20:53 -33.20848 -60.54569 24696 ft 334 kts 299°
2026-04-30 20:53 -33.19655 -60.56964 24641 ft 338 kts 298°
2026-04-30 20:54 -33.17197 -60.61754 24598 ft 337 kts 300°
2026-04-30 20:54 -33.15962 -60.64110 24596 ft 337 kts 300°
2026-04-30 20:54 -33.14701 -60.66501 24596 ft 336 kts 300°
2026-04-30 20:55 -33.12214 -60.71203 24596 ft 336 kts 300°
2026-04-30 20:55 -33.10964 -60.73560 24596 ft 336 kts 300°
2026-04-30 20:55 -33.09712 -60.75921 24596 ft 336 kts 300°
2026-04-30 20:56 -33.07199 -60.80650 24596 ft 336 kts 300°
2026-04-30 20:56 -33.05952 -60.82995 24596 ft 336 kts 300°
2026-04-30 20:56 -33.03450 -60.87694 24596 ft 336 kts 300°
2026-04-30 20:57 -33.02195 -60.90048 24596 ft 336 kts 300°
2026-04-30 20:57 -33.00944 -60.92394 24596 ft 336 kts 300°
2026-04-30 20:57 -32.99682 -60.94759 24596 ft 336 kts 300°
2026-04-30 20:58 -32.97175 -60.99450 24596 ft 336 kts 300°
2026-04-30 20:58 -32.95904 -61.01825 24596 ft 336 kts 300°
2026-04-30 20:58 -32.94649 -61.04170 24596 ft 336 kts 300°
2026-04-30 20:58 -32.93377 -61.06512 24596 ft 337 kts 302°
2026-04-30 20:59 -32.90679 -61.11039 24596 ft 337 kts 304°
2026-04-30 20:59 -32.89272 -61.13309 24596 ft 337 kts 304°
2026-04-30 21:00 -32.86477 -61.17768 24596 ft 337 kts 304°
2026-04-30 21:00 -32.83663 -61.22234 24596 ft 337 kts 304°
2026-04-30 21:01 -32.80836 -61.26715 24596 ft 337 kts 304°
2026-04-30 21:01 -32.79459 -61.28959 24596 ft 337 kts 303°
2026-04-30 21:01 -32.76809 -61.33566 24596 ft 337 kts 302°
2026-04-30 21:02 -32.75500 -61.35836 24596 ft 337 kts 302°
2026-04-30 21:02 -32.74136 -61.38183 24599 ft 348 kts 302°
2026-04-30 21:02 -32.72726 -61.40604 24602 ft 363 kts 302°
2026-04-30 21:02 -32.71278 -61.43093 24602 ft 374 kts 302°
2026-04-30 21:03 -32.69783 -61.45663 24601 ft 380 kts 302°
2026-04-30 21:03 -32.68266 -61.48269 24599 ft 383 kts 302°
2026-04-30 21:03 -32.66757 -61.50861 24597 ft 385 kts 302°
2026-04-30 21:03 -32.65239 -61.53467 24597 ft 386 kts 302°
2026-04-30 21:04 -32.63712 -61.56087 24596 ft 386 kts 302°
2026-04-30 21:04 -32.62167 -61.58735 24596 ft 387 kts 302°
2026-04-30 21:04 -32.59123 -61.63946 24596 ft 387 kts 303°
2026-04-30 21:05 -32.57577 -61.66591 24596 ft 388 kts 303°
2026-04-30 21:05 -32.56041 -61.69216 24597 ft 391 kts 303°
2026-04-30 21:05 -32.54471 -61.71896 24598 ft 394 kts 303°
2026-04-30 21:05 -32.52911 -61.74561 24597 ft 396 kts 303°
2026-04-30 21:06 -32.51345 -61.77234 24597 ft 398 kts 303°
2026-04-30 21:06 -32.49751 -61.79954 24596 ft 398 kts 303°
2026-04-30 21:06 -32.48183 -61.82628 24596 ft 399 kts 303°
2026-04-30 21:06 -32.46582 -61.85357 24596 ft 399 kts 303°
2026-04-30 21:07 -32.44999 -61.88052 24596 ft 399 kts 303°
2026-04-30 21:07 -32.43434 -61.90715 24596 ft 400 kts 303°
2026-04-30 21:07 -32.41835 -61.93434 24596 ft 400 kts 303°
2026-04-30 21:07 -32.40249 -61.96128 24596 ft 400 kts 303°
2026-04-30 21:08 -32.38669 -61.98811 24596 ft 400 kts 303°
2026-04-30 21:08 -32.37069 -62.01524 24596 ft 400 kts 303°
2026-04-30 21:08 -32.35478 -62.04222 24596 ft 400 kts 303°
2026-04-30 21:08 -32.33884 -62.06921 24596 ft 400 kts 303°
2026-04-30 21:09 -32.32300 -62.09601 24596 ft 400 kts 303°
2026-04-30 21:09 -32.31238 -62.11397 24596 ft 400 kts 303°
2026-04-30 21:09 -32.29627 -62.14120 24596 ft 400 kts 303°
2026-04-30 21:09 -32.28036 -62.16806 24596 ft 400 kts 303°
2026-04-30 21:10 -32.26447 -62.19487 24596 ft 400 kts 303°
2026-04-30 21:10 -32.24850 -62.22178 24596 ft 400 kts 303°
2026-04-30 21:10 -32.23255 -62.24864 24596 ft 400 kts 303°
2026-04-30 21:10 -32.21660 -62.27549 24596 ft 400 kts 303°
2026-04-30 21:11 -32.20067 -62.30229 24506 ft 400 kts 303°
2026-04-30 21:11 -32.18461 -62.32926 24549 ft 399 kts 303°
2026-04-30 21:11 -32.16876 -62.35588 24581 ft 399 kts 303°
2026-04-30 21:11 -32.15260 -62.38299 24593 ft 399 kts 303°
2026-04-30 21:12 -32.13664 -62.40972 24604 ft 400 kts 303°
2026-04-30 21:12 -32.12057 -62.43660 24592 ft 400 kts 303°
2026-04-30 21:12 -32.10462 -62.46327 24594 ft 400 kts 303°
2026-04-30 21:12 -32.08865 -62.48995 24595 ft 396 kts 303°
2026-04-30 21:13 -32.07305 -62.51595 24593 ft 379 kts 303°
2026-04-30 21:13 -32.05804 -62.54085 24576 ft 360 kts 303°
2026-04-30 21:13 -32.04398 -62.56408 24581 ft 341 kts 303°
2026-04-30 21:13 -32.03051 -62.58619 24584 ft 324 kts 303°
2026-04-30 21:14 -32.01755 -62.60737 24586 ft 311 kts 303°
2026-04-30 21:14 -32.00498 -62.62785 24589 ft 306 kts 303°
2026-04-30 21:14 -31.99251 -62.64813 24593 ft 307 kts 303°
2026-04-30 21:14 -31.98000 -62.66848 24596 ft 308 kts 303°
2026-04-30 21:15 -31.96733 -62.68908 24596 ft 309 kts 303°
2026-04-30 21:15 -31.95479 -62.70946 24596 ft 310 kts 303°
2026-04-30 21:15 -31.94199 -62.73025 24596 ft 310 kts 303°
2026-04-30 21:15 -31.92947 -62.75057 24596 ft 310 kts 303°
2026-04-30 21:16 -31.91679 -62.77114 24596 ft 310 kts 303°
2026-04-30 21:16 -31.90414 -62.79166 24596 ft 311 kts 303°
2026-04-30 21:16 -31.89147 -62.81220 24596 ft 311 kts 303°
2026-04-30 21:16 -31.87876 -62.83278 24596 ft 311 kts 303°
2026-04-30 21:17 -31.86591 -62.85359 24596 ft 311 kts 303°
2026-04-30 21:17 -31.85332 -62.87394 24596 ft 311 kts 303°
2026-04-30 21:17 -31.84048 -62.89470 24596 ft 311 kts 303°
2026-04-30 21:17 -31.82791 -62.91501 24596 ft 311 kts 303°
2026-04-30 21:18 -31.81508 -62.93572 24596 ft 311 kts 303°
2026-04-30 21:18 -31.80236 -62.95626 24596 ft 311 kts 303°
2026-04-30 21:18 -31.78971 -62.97666 24596 ft 311 kts 303°
2026-04-30 21:18 -31.77700 -62.99715 24596 ft 311 kts 303°
2026-04-30 21:19 -31.76416 -63.01782 24596 ft 311 kts 303°
2026-04-30 21:19 -31.75145 -63.03828 24596 ft 311 kts 303°
2026-04-30 21:19 -31.73874 -63.05873 24596 ft 311 kts 303°
2026-04-30 21:19 -31.72595 -63.07929 24596 ft 311 kts 303°
2026-04-30 21:20 -31.71324 -63.09971 24596 ft 311 kts 303°
2026-04-30 21:20 -31.70049 -63.12018 24596 ft 311 kts 303°
2026-04-30 21:20 -31.68759 -63.14093 24596 ft 311 kts 302°
2026-04-30 21:20 -31.67640 -63.16239 24597 ft 309 kts 296°
2026-04-30 21:21 -31.66790 -63.18538 24597 ft 307 kts 285°
2026-04-30 21:21 -31.66269 -63.20959 24598 ft 306 kts 281°
2026-04-30 21:21 -31.65526 -63.25892 24595 ft 306 kts 278°
2026-04-30 21:22 -31.65120 -63.28363 24413 ft 312 kts 281°
2026-04-30 21:22 -31.63536 -63.35897 21357 ft 326 kts 283°
2026-04-30 21:23 -31.62938 -63.38588 19064 ft 350 kts 284°
2026-04-30 21:23 -31.62328 -63.41306 17977 ft 336 kts 284°
2026-04-30 21:23 -31.61207 -63.46247 16472 ft 297 kts 284°
2026-04-30 21:24 -31.60654 -63.48550 15579 ft 286 kts 285°
2026-04-30 21:24 -31.60113 -63.50665 15084 ft 258 kts 285°
2026-04-30 21:24 -31.59591 -63.52644 14515 ft 255 kts 286°
2026-04-30 21:24 -31.59438 -63.53222 14276 ft 258 kts 286°
2026-04-30 21:25 -31.58524 -63.56668 12796 ft 282 kts 286°
2026-04-30 21:25 -31.58199 -63.57901 12330 ft 296 kts 286°
2026-04-30 21:25 -31.57720 -63.60280 11627 ft 307 kts 278°
2026-04-30 21:26 -31.57136 -63.65382 10016 ft 319 kts 275°
2026-04-30 21:26 -31.57016 -63.67981 9370 ft 318 kts 271°
2026-04-30 21:27 -31.57011 -63.73212 8619 ft 322 kts 269°
2026-04-30 21:27 -31.57027 -63.75830 8411 ft 319 kts 269°
2026-04-30 21:27 -31.57052 -63.78424 8284 ft 316 kts 270°
2026-04-30 21:28 -31.57003 -63.81337 8114 ft 315 kts 271°
2026-04-30 21:28 -31.56910 -63.85431 7706 ft 314 kts 271°
2026-04-30 21:29 -31.56863 -63.87398 7543 ft 311 kts 271°
2026-04-30 21:29 -31.56732 -63.92773 7281 ft 308 kts 271°
2026-04-30 21:30 -31.56581 -63.97794 7171 ft 306 kts 275°
2026-04-30 21:31 -31.54654 -64.04906 6605 ft 296 kts 294°
2026-04-30 21:31 -31.52798 -64.09022 6289 ft 275 kts 299°
2026-04-30 21:32 -31.51027 -64.12346 5700 ft 257 kts 306°
2026-04-30 21:32 -31.49946 -64.13971 5471 ft 246 kts 310°
2026-04-30 21:32 -31.48828 -64.15408 5360 ft 229 kts 315°
2026-04-30 21:32 -31.47713 -64.16635 5146 ft 218 kts 319°
2026-04-30 21:33 -31.46579 -64.17778 4898 ft 209 kts 321°
2026-04-30 21:33 -31.44114 -64.19539 4289 ft 210 kts 335°
2026-04-30 21:33 -31.42765 -64.20198 4022 ft 211 kts 340°
2026-04-30 21:34 -31.41347 -64.20666 3696 ft 206 kts 349°
2026-04-30 21:34 -31.38664 -64.20821 3049 ft 184 kts
2026-04-30 21:34 -31.37424 -64.20745 2815 ft 173 kts
2026-04-30 21:35 -31.36229 -64.20710 2586 ft 170 kts 359°
2026-04-30 21:35 -31.35073 -64.20756 2300 ft 162 kts 358°
2026-04-30 21:35 -31.33927 -64.20790 2038 ft 166 kts 359°
2026-04-30 21:35 -31.32790 -64.20812 1703 ft 157 kts 359°
2026-04-30 21:36 -31.31814 -64.20826 1614 ft 121 kts
2026-04-30 21:36 -31.31214 -64.20832 1614 ft 49 kts 359°
2026-04-30 21:37 -31.30499 -64.20845 1614 ft 26 kts 359°
2026-04-30 21:37 -31.30333 -64.20848 1614 ft 22 kts 359°
2026-04-30 21:37 -31.30193 -64.20851 1614 ft 18 kts 359°
2026-04-30 21:37 -31.30033 -64.20854 1614 ft 29 kts 359°
2026-04-30 21:38 -31.29844 -64.20857 1614 ft 30 kts 359°
2026-04-30 21:38 -31.29755 -64.20882 1614 ft 16 kts 295°
2026-04-30 21:38 -31.29866 -64.20945 1614 ft 35 kts 178°
2026-04-30 21:38 -31.30282 -64.20935 1614 ft 64 kts 179°
2026-04-30 21:39 -31.30641 -64.20929 1614 ft 43 kts 179°
2026-04-30 21:39 -31.30895 -64.20924 1614 ft 31 kts 179°
2026-04-30 21:39 -31.31071 -64.20922 1614 ft 19 kts 180°
2026-04-30 21:39 -31.31329 -64.20922 1614 ft 31 kts 186°
2026-04-30 21:40 -31.31473 -64.21018 1614 ft 25 kts 229°
2026-04-30 21:40 -31.31530 -64.21127 1614 ft 9 kts 269°
2026-04-30 21:40 -31.31531 -64.21138 1614 ft 0 kts 269°
2026-04-30 21:46 -34.55840 -58.41144 28 ft 0 kts